Temperature
9 9 9 9 9 9 9 9 9 9 9 9 9 9 9 9 9 9 9 9 9 9 9 9 9 9 9 9 9 9 10 10 10 10 10 10 10 10 10 10 10 10 10
8 8 8 8 8 9 8 9 9 9 9 9 9 9 9 9 9 9 9 9 9 9 9 9 9 9 9 9 8 9 9 9 9 9 9 9 9 9 9 9 9 9 9
8 8 8 8 8 8 8 8 8 8 8 8 8 8 8 8 8 8 8 9 8 8 8 8 8 8 8 8 8 8 8 8 8 8 8 8 8 8 8 8 8 8 8
7 7 7 7 7 7 7 7 7 7 7 7 7 7 7 7 7 7 8 8 8 8 8 8 8 8 8 8 8 8 8 8 8 8 8 8 8 8 8 8 8 8 8
6 6 7 6 6 6 6 6 7 7 7 7 6 6 6 6 7 7 7 7 7 7 7 7 7 7 7 7 7 7 7 7 7 7 7 7 7 7 7 7 7 7 7
6 6 6 6 6 6 6 6 6 6 6 6 6 5 6 6 6 6 6 6 6 6 6 6 7 7 7 7 7 7 7 7 6 6 6 6 6 6 6 6 6 6 6
5 5 5 5 5 5 5 5 5 5 5 5 5 5 5 5 5 5 5 5 5 5 6 6 6 6 6 6 6 6 6 6 6 6 6 6 6 6 6 6 6 6 6
5 5 5 5 5 5 5 5 4 4 4 4 4 4 3 4 4 4 4 4 5 5 5 5 5 5 5 5 5 5 5 5 5 5 5 5 5 5 5 5 5 5 5
4 4 4 4 4 4 4 4 4 4 4 4 4 4 3 3 3 3 3 4 4 4 4 4 4 4 4 4 4 5 4 4 4 4 4 4 4 4 4 5 5 4 4
4 4 4 4 4 4 4 4 4 3 3 3 3 3 3 3 3 2 2 3 3 3 3 3 4 4 4 4 4 4 4 4 4 4 4 4 4 4 4 4 4 4 4
3 3 3 3 3 3 3 3 3 3 3 3 3 3 3 3 3 2 2 2 3 3 3 3 3 3 3 3 3 3 3 3 3 3 3 3 3 3 3 3 3 3 3
2 2 3 3 3 3 3 3 3 3 2 2 2 2 2 2 2 2 2 2 2 2 2 2 2 2 2 2 3 3 3 3 3 2 2 2 2 2 2 2 2 3 2
2 2 2 2 2 2 2 2 2 2 2 2 2 2 2 2 2 2 2 1 1 1 1 2 2 2 2 2 2 2 2 2 2 2 2 2 2 2 2 2 2 2 2
1 1 1 1 1 2 2 2 2 2 2 2 2 2 1 1 1 1 1 1 0 0 1 1 2 1 1 1 1 2 2 2 1 2 1 1 1 1 1 1 1 1 1
0 0 1 1 1 1 1 1 1 1 1 1 1 1 1 1 1 1 1 1 0 -0 -0 1 1 1 1 1 1 1 1 1 1 1 1 1 1 1 1 1 1 1 1
-1 -0 -0 0 0 0 0 1 1 1 1 1 1 1 1 0 0 0 0 0 0 0 -0 0 0 0 0 0 0 0 0 0 0 1 1 0 0 0 0 0 0 0 0
-1 -1 -1 -1 -0 -0 -0 -0 -0 0 0 0 0 0 0 0 -0 -0 -0 -0 -0 -0 -1 -0 -0 -0 -0 -0 -0 -0 -0 -0 -0 -0 0 -0 -0 -0 -0 -0 -0 -0 -0
-2 -2 -1 -1 -1 -1 -1 -1 -1 -1 -1 -0 -0 -0 -0 -0 -1 -1 -1 -1 -1 -1 -1 -1 -1 -1 -1 -1 -1 -1 -1 -1 -1 -1 -1 -1 -1 -1 -1 -1 -1 -1 -1
-3 -2 -2 -2 -2 -1 -1 -1 -1 -1 -1 -1 -1 -1 -1 -1 -1 -1 -1 -1 -1 -1 -1 -1 -1 -1 -2 -2 -2 -1 -1 -1 -1 -1 -1 -1 -1 -1 -1 -1 -1 -1 -1
-3 -3 -3 -3 -3 -2 -2 -2 -2 -2 -2 -2 -1 -1 -1 -1 -1 -2 -2 -2 -2 -2 -2 -2 -2 -2 -2 -2 -2 -2 -2 -2 -2 -2 -2 -2 -2 -2 -2 -2 -2 -2 -2
-4 -4 -4 -4 -3 -3 -3 -3 -3 -3 -3 -2 -2 -2 -2 -2 -2 -2 -2 -2 -2 -2 -3 -3 -3 -3 -3 -3 -3 -3 -3 -3 -3 -3 -2 -2 -2 -2 -2 -2 -2 -2 -2
-4 -4 -4 -4 -4 -4 -4 -4 -4 -4 -3 -3 -3 -3 -3 -3 -3 -3 -3 -3 -3 -3 -3 -3 -3 -3 -3 -3 -3 -3 -3 -4 -4 -3 -3 -3 -3 -3 -3 -3 -3 -3 -3
-5 -5 -5 -5 -5 -5 -5 -5 -4 -5 -4 -4 -4 -4 -3 -3 -3 -3 -3 -3 -3 -3 -3 -3 -3 -3 -3 -3 -4 -4 -4 -4 -4 -3 -4 -4 -4 -4 -3 -3 -3 -3 -3
-6 -6 -6 -6 -5 -5 -5 -5 -5 -5 -5 -5 -4 -4 -4 -4 -4 -4 -4 -4 -4 -3 -3 -4 -3 -3 -3 -4 -4 -4 -4 -4 -5 -5 -5 -5 -4 -4 -4 -4 -4 -4 -4
-7 -7 -6 -6 -6 -6 -6 -6 -6 -6 -6 -5 -5 -5 -5 -4 -4 -4 -4 -4 -4 -4 -4 -4 -4 -4 -4 -4 -4 -5 -5 -5 -5 -5 -5 -5 -5 -5 -4 -4 -4 -4 -4
-8 -7 -7 -7 -7 -7 -7 -7 -7 -7 -6 -6 -6 -6 -5 -5 -5 -5 -5 -5 -5 -4 -5 -5 -5 -5 -5 -5 -5 -5 -5 -5 -6 -6 -6 -6 -6 -6 -6 -5 -5 -5 -5
Wind_Speed
4 4 4 5 6 7 7 7 7 8 8 9 9 9 9 9 9 10 10 11 11 11 11 11 11 11 11 11 12 12 12 11 11 10 10 10 10 9 9 9 9 8 8
5 4 4 4 5 6 6 6 6 6 6 7 7 8 8 8 9 9 10 10 11 10 9 9 9 9 10 10 10 11 10 10 10 10 10 9 9 8 8 8 8 8 8
6 5 4 4 4 6 7 7 7 7 6 6 6 6 7 8 8 8 9 9 9 9 9 8 9 8 8 9 8 9 9 9 9 9 9 8 8 8 7 7 7 7 7
5 5 4 3 5 6 6 5 4 4 4 4 3 4 5 6 7 8 8 8 8 8 8 8 8 8 7 7 7 7 8 8 8 8 8 8 7 7 7 7 6 6 5
5 5 4 3 5 5 4 4 3 3 4 4 3 3 4 4 5 6 7 8 8 8 8 7 8 7 7 6 6 6 6 7 7 7 7 7 6 6 6 5 5 5 5
4 5 4 4 5 4 3 3 4 3 3 4 4 4 3 3 4 5 5 6 7 7 7 7 7 6 6 5 5 5 5 5 5 5 5 5 5 5 4 4 4 4 4
4 4 4 3 3 3 4 5 4 5 3 3 3 3 3 3 2 3 4 5 5 6 7 6 6 6 5 4 4 4 4 4 3 3 3 3 3 3 3 3 3 3 3
3 3 4 3 3 3 4 5 5 3 2 3 3 3 1 1 2 1 1 2 3 4 5 4 4 4 4 4 3 3 3 2 2 2 1 2 2 2 1 1 1 2 2
2 3 4 4 3 3 5 5 6 5 5 2 2 3 3 3 1 1 1 1 1 2 2 3 2 2 2 2 1 1 1 1 1 1 1 1 1 1 1 1 1 1 1
1 2 3 4 4 3 4 5 5 4 6 5 2 1 1 3 3 1 1 1 0 0 0 0 1 1 1 2 2 2 1 1 2 2 2 1 2 1 1 1 1 1 2
1 2 2 3 3 3 4 5 5 5 5 5 4 2 1 1 2 3 3 2 2 2 2 2 2 2 2 2 2 3 3 3 3 3 3 3 3 2 2 2 2 2 3
1 2 2 2 3 3 4 4 5 6 6 6 4 4 4 4 4 3 3 3 3 3 3 3 3 3 3 3 3 4 4 5 5 5 5 4 4 3 3 3 3 3 4
2 3 3 3 3 3 4 5 4 6 7 7 6 5 4 4 3 3 4 3 3 2 2 2 4 4 4 3 4 4 4 5 6 6 7 6 5 4 4 4 5 5 5
4 3 3 4 4 4 4 4 4 5 6 7 7 6 5 4 4 4 4 4 3 3 3 4 3 5 4 3 5 5 5 6 7 7 7 7 6 5 6 6 6 6 6
3 3 3 3 3 4 4 4 4 5 6 6 7 7 6 5 4 4 4 5 5 5 6 5 4 4 5 5 6 5 6 7 8 8 8 7 7 6 7 7 7 7 7
3 4 3 3 3 3 4 4 4 5 6 6 6 7 6 5 5 5 5 5 5 6 6 4 5 4 5 6 8 6 7 8 9 9 9 9 8 8 7 7 7 8 8
4 4 4 4 4 4 4 4 5 6 6 6 6 7 7 6 6 6 5 5 5 5 7 5 4 4 4 5 6 6 7 8 8 9 9 10 9 9 8 8 8 8 8
4 5 4 4 5 5 5 5 5 6 7 8 8 8 8 7 7 6 6 7 6 6 6 7 5 4 5 5 5 5 6 7 8 9 10 10 10 9 9 9 9 9 9
4 5 5 5 5 5 5 5 5 6 7 8 8 8 9 8 8 7 7 7 6 5 5 6 6 4 3 4 4 4 5 5 6 7 8 9 10 10 10 10 10 9 10
4 5 5 5 5 5 5 6 6 6 6 6 8 8 9 10 10 9 9 8 7 6 6 6 6 4 4 3 4 4 4 4 4 6 8 9 10 10 11 11 11 10 11
4 4 5 5 5 5 5 6 6 6 6 6 7 8 9 11 12 11 9 8 8 7 7 6 6 5 5 4 5 5 6 4 4 4 4 6 7 7 9 11 11 12 12
4 4 4 5 5 5 8 9 7 6 6 7 7 7 9 10 12 13 14 13 13 11 10 9 7 8 8 7 6 6 5 4 4 4 4 5 5 5 7 10 12 13 13
4 4 5 5 6 7 9 10 9 6 6 7 7 7 7 9 10 9 11 13 14 16 15 11 10 10 9 9 8 8 7 7 5 4 3 5 4 6 8 10 12 13 13
4 5 5 6 6 7 9 10 10 6 6 7 7 7 8 7 9 9 9 9 10 11 12 10 10 10 9 9 10 9 8 5 3 3 4 4 4 5 6 9 12 13 13
5 5 5 5 6 7 9 9 9 4 5 6 7 7 7 6 10 11 9 9 9 9 11 13 13 12 13 12 10 6 5 5 4 4 3 3 3 3 4 5 9 11 12
5 6 6 5 6 6 10 10 9 4 5 5 5 7 9 9 10 11 8 9 10 9 7 8 9 9 9 10 12 9 7 6 4 4 4 3 2 1 3 3 4 7 9
Wind_Direction
115 110 105 103 101 103 98 91 87 82 78 75 74 74 70 67 64 63 66 73 82 86 88 88 86 87 89 90 87 86 84 83 86 85 84 84 86 85 85 83 83 81 81
128 117 114 108 109 113 109 105 99 90 84 82 75 72 71 70 68 67 67 68 71 79 85 86 86 86 86 87 89 85 85 83 82 82 81 80 84 87 88 85 83 83 81
131 124 118 117 122 120 114 107 97 91 88 84 76 72 70 71 72 70 70 68 68 70 77 84 83 83 85 83 89 89 86 87 84 80 77 77 80 80 82 85 83 83 81
132 131 120 123 135 126 119 112 107 105 97 92 83 69 69 74 71 72 73 72 70 67 71 77 80 78 84 84 81 82 84 83 86 83 77 76 78 79 81 81 79 78 79
133 129 126 130 141 126 118 124 118 122 118 105 93 74 65 70 70 76 74 75 77 75 72 70 73 77 79 83 81 79 89 89 88 88 83 76 75 77 78 80 77 77 79
138 134 124 133 140 130 125 126 132 119 122 120 100 72 48 54 71 73 78 81 82 82 81 79 75 74 75 78 81 79 83 95 90 91 90 84 79 79 81 80 80 79 78
143 139 133 127 143 155 157 145 134 129 119 120 102 74 31 36 56 65 81 87 84 86 85 83 79 75 76 77 82 90 85 85 95 95 101 101 97 86 83 82 80 76 68
151 154 143 148 154 157 158 159 152 142 149 145 135 132 104 17 7 23 65 99 95 89 86 88 82 76 79 76 83 95 93 81 87 87 127 137 128 114 100 87 79 58 52
172 178 166 160 165 167 176 177 175 164 171 189 163 153 161 194 226 332 343 46 100 96 95 99 91 95 108 98 115 131 119 101 72 335 329 185 179 161 119 80 33 328 344
186 189 175 172 172 173 182 185 180 181 172 185 191 188 176 159 165 201 292 305 318 202 217 201 173 139 155 153 168 184 183 235 250 268 280 252 227 230 240 244 346 0 344
191 183 186 181 181 180 186 188 185 185 186 190 190 178 156 143 164 177 222 252 287 272 262 243 219 221 214 197 199 207 219 238 250 260 270 269 251 239 246 272 290 305 311
236 197 192 193 197 195 194 197 195 194 196 194 196 193 186 181 187 184 200 213 237 260 267 251 231 230 223 217 215 220 235 243 251 260 266 269 268 264 258 269 279 284 287
269 241 225 211 212 215 206 195 201 206 201 199 200 205 204 205 192 185 184 202 236 263 258 252 236 233 228 230 236 231 239 248 256 259 262 264 264 266 265 262 265 271 277
250 240 242 235 227 218 216 203 210 217 205 206 208 205 207 212 202 198 189 184 213 257 251 248 247 224 225 233 241 244 247 249 255 258 258 263 265 262 261 257 260 267 273
266 246 239 250 248 228 221 214 224 228 213 212 212 210 210 214 210 207 197 189 191 218 239 232 227 230 235 241 250 255 251 250 252 255 255 259 262 261 256 254 256 262 267
270 255 245 251 256 248 228 219 228 229 219 220 216 212 214 217 211 208 206 207 205 207 229 224 229 234 241 245 248 251 250 250 250 251 250 253 254 254 255 254 254 257 262
268 258 241 242 248 250 247 237 235 224 224 225 220 217 219 215 212 211 211 213 212 204 226 247 245 230 226 238 255 252 251 246 245 246 247 250 250 250 252 253 253 257 261
271 265 250 244 244 248 247 239 243 231 224 228 225 221 223 219 216 214 212 216 216 210 214 233 237 226 226 228 236 246 254 244 240 244 247 249 251 252 251 251 253 256 259
285 274 252 246 247 246 248 245 241 242 235 232 227 224 224 217 220 220 218 219 220 222 213 219 229 227 226 226 225 247 252 248 244 242 246 247 254 257 255 255 255 258 259
280 274 257 252 252 252 253 251 246 243 245 245 236 229 226 221 221 219 220 219 215 217 215 215 223 222 220 214 207 219 244 234 245 246 244 250 259 259 256 256 256 260 261
289 280 264 259 257 252 251 251 247 244 241 246 247 238 234 232 230 226 224 218 211 215 215 217 222 226 222 212 216 217 231 238 246 230 237 251 255 254 254 255 257 259 260
304 297 283 262 257 261 266 264 260 250 246 243 248 246 242 239 237 238 235 228 217 213 212 214 222 224 227 221 216 219 217 223 242 216 219 254 243 245 249 249 254 261 257
303 296 285 275 263 263 267 268 267 261 251 248 247 246 247 244 240 232 236 236 234 229 223 214 216 223 222 211 206 212 213 217 235 219 215 251 241 248 250 251 257 260 257
296 291 287 280 275 271 271 271 272 263 255 253 251 249 245 244 238 231 226 227 229 229 232 229 218 221 219 209 204 208 211 219 234 219 206 239 241 248 259 254 255 258 262
298 292 289 287 286 282 276 274 276 262 259 259 257 257 250 240 244 241 228 221 225 230 237 236 235 232 227 222 209 189 189 200 227 228 207 221 247 260 259 251 255 257 261
298 297 295 292 286 285 281 277 275 259 259 262 264 263 255 250 245 245 228 214 221 225 220 225 232 233 226 216 210 200 192 201 213 227 207 204 227 249 268 260 255 261 263
Height
1529 1530 1531 1532 1533 1535 1536 1537 1538 1540 1541 1542 1543 1544 1544 1545 1546 1547 1548 1549 1550 1551 1552 1553 1553 1554 1554 1554 1555 1556 1556 1557 1557 1558 1558 1559 1559 1560 1560 1561 1562 1562 1563
1527 1528 1530 1531 1532 1533 1535 1536 1537 1538 1539 1540 1541 1542 1543 1544 1545 1546 1547 1548 1549 1550 1551 1552 1552 1553 1553 1554 1554 1555 1555 1556 1556 1557 1557 1558 1558 1559 1559 1560 1561 1561 1562
1525 1526 1528 1529 1530 1531 1533 1534 1536 1537 1538 1539 1540 1541 1542 1543 1544 1545 1546 1547 1548 1549 1550 1550 1551 1552 1552 1553 1554 1554 1554 1555 1555 1556 1556 1557 1557 1558 1558 1559 1559 1560 1560
1523 1524 1525 1526 1528 1529 1530 1532 1533 1534 1535 1537 1538 1539 1540 1541 1542 1544 1544 1545 1546 1547 1548 1549 1549 1550 1551 1551 1552 1553 1553 1553 1554 1555 1555 1556 1556 1556 1557 1557 1558 1558 1559
1521 1521 1522 1524 1525 1526 1528 1529 1531 1532 1533 1534 1536 1537 1538 1539 1540 1541 1542 1544 1544 1545 1546 1547 1548 1548 1549 1550 1550 1551 1552 1552 1553 1553 1554 1554 1555 1555 1555 1556 1556 1556 1557
1518 1519 1520 1521 1523 1524 1525 1526 1528 1529 1531 1532 1533 1535 1536 1537 1538 1539 1540 1541 1542 1543 1544 1545 1546 1546 1547 1548 1548 1549 1550 1550 1551 1551 1552 1552 1553 1553 1554 1554 1555 1555 1555
1515 1516 1517 1518 1520 1521 1522 1524 1525 1526 1528 1530 1531 1533 1534 1535 1536 1537 1538 1539 1540 1541 1542 1543 1543 1544 1545 1546 1546 1547 1548 1548 1549 1549 1550 1550 1551 1551 1552 1553 1553 1553 1553
1512 1513 1514 1515 1516 1518 1519 1520 1522 1522 1524 1526 1528 1529 1531 1534 1533 1534 1535 1536 1537 1538 1539 1540 1541 1542 1542 1543 1544 1545 1545 1546 1546 1547 1548 1548 1549 1549 1550 1550 1550 1551 1551
1509 1510 1511 1512 1513 1514 1515 1516 1518 1519 1520 1523 1525 1527 1528 1528 1530 1531 1532 1533 1534 1535 1536 1537 1538 1539 1539 1540 1541 1542 1542 1543 1544 1545 1545 1546 1546 1547 1547 1547 1547 1548 1548
1506 1507 1508 1509 1510 1511 1512 1513 1515 1516 1517 1518 1521 1522 1524 1524 1527 1527 1529 1530 1531 1532 1533 1534 1535 1536 1536 1537 1538 1539 1539 1540 1541 1542 1542 1543 1543 1543 1544 1544 1544 1545 1545
1502 1503 1504 1505 1506 1507 1508 1510 1511 1512 1513 1515 1516 1518 1519 1521 1522 1523 1523 1525 1527 1528 1530 1531 1532 1532 1533 1534 1535 1535 1536 1537 1538 1539 1539 1540 1540 1541 1541 1541 1541 1541 1541
1498 1499 1500 1501 1502 1503 1504 1506 1507 1508 1509 1511 1512 1514 1515 1516 1517 1519 1519 1520 1522 1524 1525 1527 1527 1528 1529 1530 1531 1531 1532 1533 1534 1535 1536 1536 1537 1537 1537 1537 1537 1537 1538
1493 1494 1496 1497 1498 1499 1500 1501 1503 1504 1505 1506 1507 1509 1510 1512 1513 1515 1516 1516 1518 1519 1520 1522 1523 1524 1525 1526 1527 1527 1528 1529 1530 1530 1531 1532 1532 1533 1532 1533 1533 1533 1534
1489 1490 1491 1492 1493 1494 1495 1497 1497 1499 1500 1501 1502 1504 1505 1506 1508 1509 1511 1512 1513 1514 1515 1516 1517 1519 1520 1521 1522 1523 1523 1524 1525 1526 1527 1527 1528 1528 1528 1528 1529 1529 1529
1485 1486 1486 1487 1488 1489 1490 1491 1492 1493 1494 1496 1497 1498 1499 1501 1502 1504 1506 1507 1509 1509 1509 1510 1512 1513 1515 1516 1517 1518 1518 1519 1520 1521 1522 1522 1523 1523 1524 1524 1524 1524 1525
1480 1481 1481 1482 1483 1484 1485 1485 1486 1487 1489 1490 1491 1493 1493 1495 1497 1498 1500 1501 1503 1503 1503 1504 1506 1508 1510 1511 1512 1512 1513 1514 1514 1515 1516 1517 1518 1518 1518 1519 1519 1519 1520
1475 1476 1476 1477 1477 1478 1479 1480 1480 1481 1482 1484 1485 1486 1487 1489 1490 1492 1494 1495 1496 1498 1497 1498 1501 1503 1504 1505 1506 1507 1508 1508 1508 1509 1510 1511 1512 1513 1513 1513 1514 1514 1514
1471 1471 1471 1472 1472 1473 1473 1474 1475 1475 1476 1477 1478 1480 1481 1482 1484 1485 1487 1488 1490 1491 1492 1492 1494 1496 1497 1499 1500 1501 1502 1502 1503 1503 1504 1506 1507 1507 1507 1508 1508 1508 1508
1466 1466 1466 1466 1466 1467 1468 1468 1469 1469 1470 1471 1472 1473 1474 1475 1476 1478 1480 1481 1483 1484 1485 1486 1487 1489 1491 1492 1493 1494 1496 1496 1496 1497 1498 1500 1500 1501 1501 1502 1502 1502 1501
1461 1461 1461 1461 1461 1461 1462 1463 1463 1464 1464 1465 1466 1466 1467 1468 1469 1471 1472 1474 1476 1477 1478 1479 1480 1482 1483 1485 1487 1487 1488 1489 1489 1491 1492 1493 1494 1495 1495 1495 1495 1495 1495
1456 1456 1456 1455 1456 1456 1456 1457 1457 1457 1458 1458 1459 1460 1460 1461 1463 1464 1465 1466 1468 1469 1471 1472 1473 1474 1476 1477 1479 1480 1482 1482 1483 1484 1485 1486 1487 1488 1488 1489 1489 1489 1489
1451 1451 1450 1450 1450 1450 1451 1451 1452 1451 1452 1452 1452 1453 1454 1454 1455 1456 1458 1459 1461 1462 1463 1464 1465 1466 1467 1470 1472 1474 1475 1475 1476 1478 1478 1479 1481 1481 1482 1482 1482 1482 1483
1446 1445 1445 1445 1445 1445 1445 1445 1445 1446 1446 1446 1446 1446 1446 1447 1448 1449 1450 1451 1452 1454 1456 1457 1457 1458 1460 1462 1465 1466 1467 1468 1469 1471 1472 1472 1474 1474 1475 1476 1476 1477 1477
1441 1441 1440 1439 1439 1439 1439 1439 1439 1440 1439 1439 1439 1439 1439 1439 1441 1442 1443 1443 1444 1446 1448 1450 1451 1452 1454 1456 1458 1459 1461 1462 1464 1466 1467 1467 1467 1468 1469 1470 1470 1471 1471
1436 1436 1435 1434 1433 1433 1433 1433 1434 1433 1433 1433 1433 1433 1433 1433 1434 1435 1436 1436 1437 1439 1442 1444 1445 1447 1448 1450 1452 1454 1455 1456 1456 1458 1460 1461 1461 1461 1462 1463 1464 1465 1465
1432 1431 1430 1429 1428 1427 1427 1427 1428 1427 1427 1426 1426 1427 1427 1427 1428 1429 1429 1430 1431 1432 1435 1437 1438 1440 1441 1443 1445 1447 1448 1450 1450 1451 1453 1455 1455 1456 1456 1456 1458 1459 1459